Location: Asheville, NC
(35.6000°N, 82.5500°W)
Time: 20:54:10
(UTC-05:00)

SEEDS - Pass Details

Date: 04 January 2018
Orbit: 586 x 606 km, 97.5° (Epoch: 21 January)

Event Time Altitude Azimuth Distance (km) Brightness Sun altitude
Rises 06:44:30 0° 33° (NNE) 2,833 ? -11.2°
Reaches altitude 10° 06:47:30 10° 57° (ENE) 1,922 ? -10.6°
Maximum altitude 06:49:57 15° 93° (E) 1,605 ? -10.2°
Drops below altitude 10° 06:52:22 10° 129° (SE) 1,908 ? -9.7°
Sets 06:55:20 0° 153° (SSE) 2,799 ? -9.1°
